Regional Weather Roundup
Issued by NWS

Home | Current Version | Previous Version | Text Only | Print | Product List | Glossary On
Versions: 1 2 3 4 5 6 7 8 9 10 11 12 13 14 15 16 17 18 19 20 21 22 23 24 25 26 27 28 29 30 31 32 33 34 35 36 37 38 39 40 41 42 43 44 45 46 47 48 49 50
998
ASUS43 KTOP 241908
RWRKS

WEATHER ROUNDUP FOR KANSAS
NATIONAL WEATHER SERVICE GOODLAND KS
200 PM CDT SUN SEP 24 2017

NOTE:  "FAIR" INDICATES FEW OR NO CLOUDS BELOW 12,000 FEET WITH NO
SIGNIFICANT WEATHER AND/OR OBSTRUCTIONS TO VISIBILITY.

KSZ001>006-013>018-027>032-041>047-242000-
NORTHWEST KANSAS

CITY           SKY/WX    TMP DP  RH WIND       PRES   REMARKS
GOODLAND       LGT RAIN  52  51  97 N10       29.98S FOG
HAYS           CLOUDY    68  64  88 VRB3      29.93F
HILL CITY      LGT RAIN  61  60  97 N9        29.96S
RUSSELL        CLOUDY    73  62  68 W5        29.91F
$$

KSZ061>065-074>080-084>089-242000-
SOUTHWEST KANSAS

CITY           SKY/WX    TMP DP  RH WIND       PRES   REMARKS
DODGE CITY     CLOUDY    72  65  78 S14       29.92F
ELKHART          N/A     68  67  97 SE14        N/A
GARDEN CITY    CLOUDY    67  64  90 SE12      29.91F
GREAT BEND     CLOUDY    76  63  64 W6        29.91F
LIBERAL        PTSUNNY   74  65  73 S22G28    29.89F
PRATT          CLOUDY    81  60  48 S17G23    29.90F
$$

KSZ066>073-081>083-090>101-242000-
SOUTHEAST KANSAS

CITY           SKY/WX    TMP DP  RH WIND       PRES   REMARKS
CHANUTE        MOSUNNY   87  67  51 S14G21    29.95F
COFFEYVILLE    SUNNY     88  68  51 S10G20    29.93F
HUTCHINSON     CLOUDY    87  63  44 S21G28    29.89F
MEDICINE LODGE   N/A     84  61  45 S20G29    29.87F
NEWTON         MOSUNNY   85  64  49 S18G25    29.92F
PARSONS        MOSUNNY   87  67  51 S8        29.96F
WICHITA INTL   PTSUNNY   86  64  47 S20G26    29.90F
WICHITA JABRA  PTSUNNY   85  66  53 S13       29.91F
WICHITA MCCONL MOSUNNY   87  64  45 S15G24    29.91F
WINFIELD       PTSUNNY   88  65  46 S18G24    29.93F
$$

KSZ007>012-019>026-033>040-048>060-102>105-242000-
NORTHEAST KANSAS

CITY           SKY/WX    TMP DP  RH WIND       PRES   REMARKS
CONCORDIA      PTSUNNY   84  64  50 S20G26    29.90F
EMPORIA        MOSUNNY   87  66  49 S15       29.93F
LAWRENCE       MOSUNNY   88  68  51 S10G23    29.94F
MANHATTAN      MOSUNNY   89  65  44 S13G20    29.90F
MARYSVILLE     PTSUNNY   90  64  43 S14G23    29.90F
OLATHE IND     MOSUNNY   86  68  54 S12       29.97F
OLATHE EXE     MOSUNNY   85  68  56 SE9       29.97F
SALINA         MOSUNNY   91  60  35 S18G25    29.89F
TOPEKA BILLARD MOSUNNY   89  68  49 S13       29.93F
TOPEKA FORBES  SUNNY     90  67  46 S13       29.94F
$$




USA.gov is the U.S. government's official web portal to all federal, state and local government web resources and services.